GW6106 Weather Reports


Display with metric or nautical units.
time (UTC)temp
F
wind
direction
speed
MPH
gust
MPH
rain 1hr
in
rain 24hr
in
rain mn
in
humidity
%
barometer
mb
20260507000350 45 261 5.0 7.0 0.00 0.00 0.29 88 1010.0
20260506235850 45 259 6.0 7.0 0.00 0.00 0.29 88 1010.0
20260506235349 46 250 4.0 5.0 0.00 0.00 0.29 87 1010.0
20260506234850 46 266 3.0 3.0 0.00 0.00 0.29 86 1010.0
20260506234350 46 286 2.0 2.0 0.00 0.00 0.29 86 1010.0
20260506233849 46 319 1.0 1.0 0.00 0.00 0.29 86 1010.0
20260506233349 46 268 1.0 2.0 0.00 0.00 0.29 85 1010.0
20260506232849 46 0 0.0 0.0 0.00 0.00 0.29 85 1010.0
20260506232350 46 44 0.0 0.0 0.00 0.00 0.29 85 1010.0
20260506231849 46 31 1.0 2.0 0.00 0.00 0.29 85 1010.0
20260506231349 46 317 1.0 2.0 0.00 0.00 0.29 84 1010.0
20260506230851 46 280 1.0 2.0 0.00 0.00 0.29 84 1010.0
20260506230350 46 346 1.0 2.0 0.00 0.00 0.29 83 1010.0
20260506225849 47 323 1.0 2.0 0.00 0.00 0.29 82 1010.0
20260506225350 47 262 2.0 2.0 0.00 0.00 0.29 83 1010.0
20260506224849 47 16 0.0 1.0 0.00 0.00 0.29 82 1010.0
20260506224349 47 313 2.0 2.0 0.00 0.00 0.29 82 1010.0
20260506223849 47 103 0.0 0.0 0.00 0.00 0.29 82 1010.0
20260506223350 47 32 1.0 1.0 0.00 0.00 0.29 82 1010.0
20260506222850 47 355 1.0 2.0 0.00 0.00 0.29 82 1010.0
20260506222349 47 316 1.0 2.0 0.00 0.00 0.29 82 1010.0
20260506221850 48 42 1.0 1.0 0.00 0.00 0.29 82 1010.0
20260506221350 48 272 1.0 2.0 0.00 0.00 0.29 82 1010.0
20260506220849 48 10 1.0 2.0 0.00 0.00 0.29 82 1010.0
20260506220350 47 92 1.0 1.0 0.00 0.00 0.29 83 1010.0
20260506215849 47 78 1.0 2.0 0.00 0.00 0.29 83 1010.0
20260506215349 47 344 2.0 2.0 0.00 0.00 0.29 83 1010.0
20260506214850 47 7 2.0 3.0 0.00 0.00 0.29 82 1010.0
20260506214349 47 16 1.0 1.0 0.00 0.00 0.29 83 1010.0
20260506213851 47 175 1.0 2.0 0.00 0.00 0.29 83 1010.0
20260506213349 47 349 1.0 2.0 0.00 0.00 0.29 83 1010.0
20260506212850 47 295 2.0 4.0 0.00 0.00 0.29 83 1010.0
20260506212349 47 325 2.0 2.0 0.00 0.00 0.29 84 1010.0
20260506211849 47 335 5.0 7.0 0.00 0.00 0.29 82 1010.0
20260506211349 47 312 2.0 3.0 0.00 0.00 0.29 82 1009.0
20260506210849 47 353 4.0 5.0 0.00 0.00 0.29 81 1009.0
20260506210349 47 339 4.0 6.0 0.00 0.00 0.29 81 1009.0
20260506205849 47 340 5.0 6.0 0.00 0.00 0.29 82 1009.0
20260506205349 47 1 2.0 3.0 0.00 0.00 0.29 82 1009.0
20260506204850 47 19 4.0 5.0 0.00 0.00 0.29 83 1009.0
20260506204349 47 349 2.0 3.0 0.00 0.00 0.29 83 1009.0
20260506203850 47 336 5.0 6.0 0.00 0.00 0.29 82 1009.0
20260506203349 47 352 2.0 2.0 0.00 0.00 0.29 83 1009.0
20260506202849 47 27 2.0 2.0 0.00 0.00 0.29 83 1009.0
20260506202350 47 342 2.0 3.0 0.00 0.00 0.29 83 1009.0
20260506201849 46 347 3.0 5.0 0.00 0.00 0.29 84 1009.0
20260506201350 46 351 5.0 5.0 0.00 0.00 0.29 84 1009.0
20260506200849 46 32 3.0 5.0 0.00 0.00 0.29 83 1009.0
20260506200349 46 11 3.0 4.0 0.00 0.00 0.29 84 1009.0
20260506195849 46 16 2.0 3.0 0.00 0.00 0.29 84 1009.0
20260506195349 46 331 3.0 4.0 0.00 0.00 0.29 84 1009.0
20260506194849 46 328 2.0 3.0 0.00 0.00 0.29 85 1009.0
20260506194349 46 0 2.0 3.0 0.00 0.00 0.29 85 1009.0
20260506193849 47 21 2.0 3.0 0.00 0.00 0.29 85 1009.0
20260506193349 46 44 4.0 6.0 0.00 0.00 0.29 85 1009.0
20260506192850 46 353 4.0 5.0 0.00 0.00 0.29 86 1009.0
20260506192349 46 8 4.0 6.0 0.00 0.00 0.29 87 1009.0
20260506191850 46 3 4.0 7.0 0.00 0.00 0.29 87 1009.0
20260506191350 46 17 4.0 6.0 0.00 0.00 0.29 87 1009.0
20260506190849 45 6 4.0 5.0 0.00 0.00 0.29 87 1009.0
20260506190349 45 22 5.0 7.0 0.00 0.00 0.29 88 1009.0
20260506185850 45 9 4.0 5.0 0.00 0.00 0.29 88 1009.0
20260506185349 46 347 5.0 6.0 0.00 0.00 0.29 88 1009.0
20260506184850 46 8 2.0 3.0 0.00 0.00 0.29 88 1009.0
20260506184349 46 18 7.0 9.0 0.00 0.00 0.29 87 1009.0
20260506183852 46 7 5.0 7.0 0.00 0.00 0.29 88 1009.0
20260506183350 46 8 7.0 8.0 0.00 0.00 0.29 87 1009.0
20260506182849 46 0 2.0 4.0 0.00 0.00 0.29 88 1009.0
20260506182350 46 23 5.0 5.0 0.00 0.00 0.29 87 1009.0
20260506181850 46 348 6.0 8.0 0.00 0.00 0.29 87 1009.0
20260506181350 46 16 5.0 7.0 0.00 0.00 0.29 87 1009.0
20260506180849 46 27 5.0 7.0 0.00 0.00 0.29 86 1009.0
20260506180349 46 335 5.0 8.0 0.00 0.00 0.29 86 1008.0
20260506175850 45 41 6.0 9.0 0.00 0.00 0.29 87 1008.0
20260506175350 45 25 4.0 7.0 0.00 0.00 0.29 87 1008.0
20260506174850 45 49 7.0 10.0 0.00 0.00 0.29 87 1008.0
20260506174349 45 43 7.0 10.0 0.00 0.00 0.29 87 1008.0
20260506173849 46 15 5.0 6.0 0.00 0.00 0.29 87 1008.0
20260506173349 46 0 6.0 9.0 0.00 0.00 0.29 87 1008.0
20260506172849 46 33 5.0 7.0 0.00 0.00 0.29 87 1008.0
20260506172350 46 48 8.0 12.0 0.00 0.00 0.29 88 1008.0
20260506171850 45 10 4.0 8.0 0.00 0.00 0.29 89 1008.0
20260506171349 45 21 5.0 8.0 0.00 0.00 0.29 89 1008.0
20260506170850 45 44 5.0 6.0 0.00 0.00 0.29 89 1008.0
20260506170350 45 11 7.0 9.0 0.00 0.00 0.28 89 1008.0
20260506165849 45 47 6.0 10.0 0.00 0.00 0.28 90 1008.0
20260506165350 45 17 6.0 9.0 0.00 0.00 0.28 90 1008.0
20260506164849 45 352 4.0 7.0 0.00 0.00 0.28 90 1008.0
20260506164351 45 30 5.0 7.0 0.00 0.00 0.28 90 1008.0
20260506163850 45 17 7.0 9.0 0.00 0.00 0.28 90 1008.0
20260506163351 45 13 5.0 9.0 0.00 0.00 0.28 90 1008.0
20260506162850 45 23 6.0 9.0 0.00 0.00 0.28 90 1008.0
20260506162349 45 26 7.0 9.0 0.00 0.00 0.30 90 1008.0
20260506161850 45 14 5.0 7.0 0.00 0.00 0.30 91 1008.0
20260506161349 45 12 9.0 11.0 0.00 0.00 0.30 90 1008.0
20260506160850 45 22 5.0 7.0 0.00 0.00 0.30 90 1009.0
20260506160350 45 21 3.0 5.0 0.00 0.00 0.29 91 1009.0
20260506155850 44 28 6.0 9.0 0.00 0.00 0.29 91 1009.0
20260506155349 44 43 4.0 5.0 0.01 0.00 0.29 91 1009.0
20260506154850 44 16 6.0 8.0 0.02 0.00 0.28 90 1009.0
20260506154349 44 28 6.0 9.0 0.01 0.00 0.28 90 1009.0
20260506153849 45 13 5.0 7.0 0.07 0.00 0.27 89 1009.0
20260506153349 45 29 3.0 4.0 0.01 0.00 0.27 88 1009.0
20260506152849 45 15 3.0 5.0 0.00 0.00 0.27 87 1009.0
20260506152349 45 43 6.0 8.0 0.00 0.00 0.27 86 1009.0
20260506151849 45 50 7.0 9.0 0.00 0.00 0.27 87 1009.0
20260506151350 45 40 8.0 11.0 0.00 0.00 0.27 87 1008.0
20260506150850 45 4 6.0 8.0 0.00 0.00 0.27 87 1008.0
20260506150350 45 30 4.0 5.0 0.00 0.00 0.27 87 1008.0
20260506145850 45 21 5.0 7.0 0.00 0.00 0.27 87 1008.0
20260506145349 45 25 6.0 9.0 0.00 0.00 0.27 87 1008.0
20260506144850 44 51 10.0 13.0 0.01 0.00 0.26 87 1008.0
20260506144350 44 45 8.0 12.0 0.00 0.00 0.26 88 1008.0
20260506143850 44 49 8.0 13.0 0.00 0.00 0.26 89 1008.0
20260506143349 44 54 7.0 10.0 0.00 0.00 0.26 89 1008.0
20260506142850 44 46 5.0 6.0 0.01 0.00 0.26 89 1008.0
20260506142350 44 10 5.0 6.0 0.00 0.00 0.27 89 1008.0
20260506141849 44 29 7.0 13.0 0.00 0.00 0.27 89 1008.0
20260506141349 44 37 6.0 7.0 0.00 0.00 0.27 89 1008.0
20260506140849 44 50 10.0 13.0 0.00 0.00 0.27 88 1008.0
20260506140350 44 45 6.0 7.0 0.00 0.00 0.25 89 1008.0
20260506135850 44 46 9.0 11.0 0.01 0.00 0.25 88 1008.0
20260506135350 44 48 5.0 10.0 0.01 0.00 0.25 89 1009.0
20260506134850 44 36 5.0 6.0 0.02 0.00 0.25 89 1009.0
20260506134349 44 49 5.0 7.0 0.01 0.00 0.25 89 1009.0
20260506133849 44 42 8.0 9.0 0.01 0.00 0.25 89 1008.0
20260506133349 44 34 5.0 7.0 0.01 0.00 0.24 89 1009.0
20260506132850 44 47 8.0 10.0 0.01 0.00 0.24 89 1009.0
20260506132349 44 35 8.0 11.0 0.00 0.00 0.25 89 1008.0
20260506131849 43 54 4.0 6.0 0.00 0.00 0.25 89 1009.0
20260506131350 44 59 6.0 6.0 0.00 0.00 0.25 89 1008.0
20260506130849 44 35 7.0 9.0 0.00 0.00 0.25 89 1008.0
20260506130352 44 40 8.0 11.0 0.00 0.00 0.25 89 1008.0
20260506125849 44 31 7.0 10.0 0.00 0.00 0.25 90 1009.0
20260506125350 43 52 5.0 6.0 0.01 0.00 0.25 90 1009.0
20260506124850 44 44 6.0 8.0 0.00 0.00 0.24 90 1009.0
20260506124350 44 29 6.0 8.0 0.00 0.00 0.24 90 1009.0
20260506123849 44 23 6.0 8.0 0.00 0.00 0.24 90 1009.0
20260506123349 44 47 4.0 6.0 0.00 0.00 0.24 90 1009.0
20260506122849 43 32 5.0 6.0 0.01 0.00 0.24 91 1009.0
20260506122349 43 30 5.0 8.0 0.02 0.00 0.25 91 1009.0
20260506121849 43 51 7.0 9.0 0.00 0.00 0.24 92 1008.0
20260506121350 43 47 9.0 13.0 0.00 0.00 0.24 92 1008.0
20260506120854 43 46 8.0 11.0 0.02 0.00 0.24 92 1008.0
20260506120350 43 45 4.0 6.0 0.00 0.00 0.23 92 1008.0
20260506115849 43 34 6.0 7.0 0.01 0.00 0.23 92 1009.0
20260506115349 43 40 4.0 4.0 0.00 0.00 0.23 92 1009.0
20260506114849 43 26 3.0 4.0 0.00 0.00 0.23 91 1009.0
20260506114349 43 37 4.0 6.0 0.01 0.00 0.23 91 1009.0
20260506113850 43 24 4.0 6.0 0.01 0.00 0.23 91 1009.0
20260506113350 43 51 4.0 5.0 0.01 0.00 0.22 91 1009.0
20260506112849 43 34 4.0 5.0 0.02 0.00 0.22 91 1009.0
20260506112349 43 27 3.0 4.0 0.04 0.00 0.23 91 1009.0
20260506111849 43 46 4.0 5.0 0.03 0.00 0.22 91 1009.0
20260506111350 43 27 3.0 4.0 0.04 0.00 0.22 91 1009.0
20260506110849 43 35 5.0 7.0 0.02 0.00 0.21 91 1009.0
20260506110349 43 23 3.0 4.0 0.02 0.00 0.21 91 1009.0
20260506105849 43 30 5.0 8.0 0.03 0.00 0.20 91 1009.0
20260506105349 43 19 2.0 3.0 0.00 0.00 0.20 91 1009.0
20260506104851 43 39 4.0 5.0 0.00 0.00 0.20 91 1009.0
20260506104350 43 50 4.0 5.0 0.01 0.00 0.20 91 1009.0
20260506103849 43 41 5.0 7.0 0.02 0.00 0.19 91 1009.0
20260506103349 43 42 4.0 5.0 0.00 0.00 0.19 92 1009.0
20260506102849 43 48 4.0 7.0 0.01 0.00 0.18 92 1009.0
20260506102350 43 16 5.0 6.0 0.01 0.00 0.19 91 1009.0
20260506101850 43 52 6.0 6.0 0.03 0.00 0.19 91 1009.0
20260506101350 43 43 5.0 6.0 0.09 0.00 0.18 91 1009.0
20260506100849 43 23 3.0 4.0 0.20 0.00 0.17 91 1009.0
20260506100349 43 28 2.0 2.0 0.17 0.00 0.15 91 1009.0
20260506095849 43 39 2.0 2.0 0.06 0.00 0.14 91 1009.0
20260506095349 43 50 2.0 3.0 0.10 0.00 0.14 91 1009.0
20260506094849 43 56 3.0 4.0 0.06 0.00 0.13 91 1009.0
20260506094349 43 60 2.0 3.0 0.02 0.00 0.12 90 1009.0
20260506093849 43 48 3.0 4.0 0.01 0.00 0.12 90 1009.0
20260506093349 43 11 2.0 2.0 0.01 0.00 0.11 90 1009.0
20260506092849 43 65 2.0 2.0 0.01 0.00 0.11 90 1009.0
20260506092349 43 65 2.0 3.0 0.03 0.00 0.12 90 1009.0
20260506091850 43 81 2.0 3.0 0.03 0.00 0.11 90 1009.0
20260506091349 44 89 2.0 3.0 0.01 0.00 0.11 90 1009.0
20260506090849 44 85 3.0 3.0 0.01 0.00 0.11 90 1009.0
20260506090349 44 61 3.0 3.0 0.01 0.00 0.10 90 1009.0
20260506085849 44 52 3.0 4.0 0.01 0.00 0.10 90 1009.0
20260506085351 44 61 2.0 4.0 0.01 0.00 0.09 91 1009.0
20260506084849 44 78 3.0 4.0 0.01 0.00 0.09 91 1009.0
20260506084349 44 74 2.0 3.0 0.01 0.00 0.09 91 1009.0
20260506083850 44 64 4.0 5.0 0.03 0.00 0.09 91 1009.0
20260506083349 44 52 4.0 5.0 0.01 0.00 0.08 92 1009.0
20260506082850 44 76 2.0 3.0 0.01 0.00 0.08 92 1009.0
20260506082352 44 66 3.0 4.0 0.00 0.00 0.09 92 1009.0
20260506081849 44 80 2.0 3.0 0.00 0.00 0.09 92 1009.0
20260506081351 44 64 1.0 2.0 0.00 0.00 0.09 92 1010.0
20260506080849 44 36 3.0 4.0 0.00 0.00 0.09 92 1009.0
20260506080349 44 42 3.0 4.0 0.02 0.00 0.08 92 1009.0
20260506073349 44 36 2.0 2.0 0.00 0.00 0.07 92 1010.0
20260506072850 44 17 0.0 1.0 0.00 0.00 0.07 92 1010.0
20260506072349 44 340 0.0 2.0 0.01 0.00 0.07 92 1010.0
20260506071849 44 53 2.0 4.0 0.00 0.00 0.07 92 1009.0
20260506071352 44 71 2.0 3.0 0.01 0.00 0.07 92 1009.0
20260506070849 44 251 0.0 1.0 0.02 0.00 0.06 91 1010.0
20260506070349 44 38 1.0 2.0 0.01 0.00 0.06 91 1009.0
20260506062352 44 71 1.0 2.0 0.00 0.00 0.06 90 1010.0
20260506061850 44 39 1.0 2.0 0.00 0.00 0.05 90 1010.0
20260506061349 44 96 2.0 4.0 0.00 0.00 0.05 90 1010.0
20260506060850 44 105 4.0 5.0 0.00 0.00 0.05 90 1010.0
20260506060349 44 124 1.0 2.0 0.00 0.00 0.05 90 1010.0
20260506051350 46 148 0.0 1.0 0.00 0.00 0.03 93 1011.0
20260506050849 46 126 2.0 2.0 0.00 0.00 0.03 93 1010.0
20260506050350 46 103 2.0 3.0 0.01 0.00 0.02 93 1010.0
20260506044850 46 0 0.0 0.0 0.00 0.00 0.02 93 1011.0
20260506044349 46 86 0.0 0.0 0.00 0.00 0.02 93 1011.0
20260506043849 46 43 2.0 3.0 0.00 0.00 0.01 93 1010.0
20260506043349 45 126 0.0 0.0 0.01 0.00 0.01 93 1011.0
20260506042849 45 104 0.0 0.0 0.02 0.00 0.01 93 1010.0
20260506042349 45 93 1.0 2.0 0.01 0.00 0.01 93 1010.0
20260506041850 45 79 0.0 1.0 0.00 0.00 0.00 93 1010.0
20260506041349 45 0 0.0 0.0 0.01 0.00 0.00 93 1010.0
20260506040849 45 358 0.0 0.0 0.01 0.00 0.00 93 1010.0
20260506040349 45 15 0.0 1.0 0.01 0.00 0.00 93 1010.0
20260506035851 45 321 0.0 1.0 0.01 0.00 0.42 93 1010.0
20260506035349 45 251 0.0 1.0 0.01 0.00 0.42 93 1010.0
20260506034849 45 0 0.0 0.0 0.01 0.00 0.41 93 1010.0
20260506034349 45 132 1.0 2.0 0.00 0.00 0.41 93 1010.0
20260506033849 45 148 1.0 2.0 0.03 0.00 0.41 93 1010.0
20260506033350 45 119 2.0 3.0 0.02 0.00 0.40 93 1011.0
20260506032851 45 113 1.0 3.0 0.04 0.00 0.40 93 1011.0
20260506032350 45 0 0.0 0.0 0.14 0.00 0.41 93 1011.0
20260506031849 45 204 0.0 2.0 0.06 0.00 0.39 93 1011.0
20260506031350 45 286 0.0 2.0 0.04 0.00 0.38 92 1011.0
20260506030350 45 263 3.0 5.0 0.01 0.00 0.37 92 1011.0
20260506025849 46 264 3.0 4.0 0.03 0.00 0.37 92 1011.0
20260506025349 46 277 2.0 4.0 0.00 0.00 0.37 92 1011.0
20260506024849 46 271 0.0 1.0 0.03 0.00 0.36 92 1010.0
20260506024349 46 289 0.0 1.0 0.02 0.00 0.36 92 1010.0
20260506023849 46 277 2.0 2.0 0.05 0.00 0.36 92 1010.0
20260506023349 46 311 1.0 2.0 0.09 0.00 0.35 92 1010.0
20260506022849 46 0 0.0 0.0 0.07 0.00 0.34 92 1010.0
20260506022350 46 325 0.0 2.0 0.09 0.00 0.34 92 1010.0
20260506021849 46 9 0.0 1.0 0.10 0.00 0.33 92 1010.0
20260506021349 46 16 0.0 1.0 0.07 0.00 0.32 92 1010.0
20260506020849 46 0 0.0 0.0 0.03 0.00 0.31 92 1010.0
20260506020350 46 260 2.0 3.0 0.13 0.00 0.31 92 1010.0
20260506015849 46 338 0.0 1.0 0.13 0.00 0.30 92 1010.0
20260506015349 46 273 0.0 1.0 0.09 0.00 0.29 92 1010.0
20260506014850 46 237 0.0 2.0 0.09 0.00 0.28 91 1010.0
20260506014349 46 0 0.0 0.0 0.16 0.00 0.27 91 1010.0
20260506013850 46 0 0.0 0.0 0.14 0.00 0.26 91 1010.0
20260506013349 46 153 0.0 1.0 0.11 0.00 0.25 91 1010.0
20260506012849 46 250 0.0 1.0 0.10 0.00 0.24 91 1010.0
20260506012349 47 0 0.0 0.0 0.06 0.00 0.23 91 1010.0
20260506011849 47 232 1.0 2.0 0.05 0.00 0.22 91 1010.0
20260506011349 47 205 0.0 2.0 0.03 0.00 0.22 91 1010.0
20260506010849 47 199 0.0 2.0 0.07 0.00 0.21 91 1010.0
20260506010349 47 173 0.0 2.0 0.05 0.00 0.20 91 1010.0
20260506005849 47 150 1.0 2.0 0.09 0.00 0.20 91 1010.0
20260506005349 47 142 1.0 2.0 0.03 0.00 0.19 91 1010.0
20260506004849 47 132 1.0 2.0 0.06 0.00 0.19 91 1010.0
20260506004351 47 125 1.0 2.0 0.05 0.00 0.18 90 1010.0
20260506003849 47 124 0.0 1.0 0.12 0.00 0.17 90 1010.0
20260506003349 47 113 0.0 1.0 0.07 0.00 0.16 90 1010.0
20260506002850 47 254 1.0 2.0 0.00 0.00 0.16 90 1010.0
20260506002349 47 70 0.0 1.0 0.00 0.00 0.16 89 1010.0
20260506001849 47 203 0.0 0.0 0.01 0.00 0.16 89 1010.0
20260506001349 47 357 2.0 2.0 0.01 0.00 0.16 89 1009.0
20260506000849 47 1 1.0 2.0 0.06 0.00 0.15 89 1009.0